Location: Newark
(34.9500°N, 139.9667°E)
Time: 06:29:33
(UTC+00:00)

deb Explorer IX - Pass Details

Date: 18 December 2019
Orbit: 548 x 1101 km, 38.8° (Epoch: 27 January)

Event Time Altitude Azimuth Distance (km) Brightness Sun altitude
Rises 10:18:01 0° 282° (WNW) 3,478 ? -33.3°
Reaches altitude 10° 10:20:50 10° 270° (W) 2,627 ? -33.9°
Maximum altitude 10:26:03 27° 215° (SW) 1,823 ? -35.0°
Enters shadow 10:28:02 23° 189° (S) 2,004 ? -35.4°
